Погода в Ржаксе

Россия / Тамбовская область     52°08′11″N   42°01′30″E
темп.,
°C
ветер,
м/с
пор.,
м/с
влажн.,
%
обл.,
%
осадки,
мм/ч
давл.,
гПа
погр.,
м
5 августа, чт
чт500:00+18сз226446 0.0 101720
03:00+16зсз22665 0.0 101711
06:00+17сз11684 0.0 101827
09:00+22зюз115157 0.0 1018552
12:00+25зюз2241100 0.0 10172028
15:00+26юз22377 0.0 10172060
18:00+25юз224398 0.0 1016311
21:00+20юв1150100 0.0 101611
6 августа, пт
пт600:00+19вюв335431 0.0 101628
03:00+17юв36625 0.0 101680
06:00+17юв35645 0.0 101698
09:00+24ююв46455 0.0 1015446
12:00+29ююв563333 0.0 10141635
15:00+30ююв45307 0.0 10132142
18:00+29юв354196 0.0 1012120
21:00+23юв5134410 0.0 1012218
7 августа, сб
сб700:00+23юв6143910 0.0 1013348
03:00+20юв51544100 0.0 1013316
06:00+19ююв51549100 0.0 1013327
09:00+25ююв61037100 0.0 1014510
12:00+30ююв572662 0.0 10131302
15:00+32юв562348 0.0 10122286
18:00+29юв4735100 0.0 1012225
21:00+24вюв483599 0.0 1012118
8 августа, вс
вс800:00+22вюв41038100 0.0 1013177
03:00+21вюв4839100 0.0 1013128
06:00+21юв3840100 0.0 1013138
09:00+26юв4536100 0.0 1013187
12:00+27ссз2337100 0.0 1013135
15:00+28юв1238100 0.1 101423
18:00+27юв3544100 0.0 1014104
21:00+26ююв51034100 0.0 1015255
9 августа, пн
пн900:00+26ю3537100 0.0 101479
03:00+24св2241100 0.0 101418
06:00+23ссв4846100 0.0 1013154
09:00+27ссв684099 0.0 1013590
12:00+30ссв6632100 0.0 10121539
15:00+31ссв5632100 0.0 10112006
18:00+30с5839100 0.0 1011434
21:00+24с512475 0.0 1012303